Location: Altleiningen
(49.5078°N, 8.0741°E)
Time: 15:39:25
(UTC+00:00)

Cosmos 841 Rocket - Pass Details

Date: 14 June 2025
Orbit: 743 x 767 km, 74.0° (Epoch: 19 July)

Event Time Altitude Azimuth Distance (km) Brightness Sun altitude
Rises 23:16:42 0° 337° (NNW) 3,250 8.1 -17.1°
Reaches altitude 10° 23:19:06 10° 339° (NNW) 2,318 7.1 -17.2°
Maximum altitude 23:24:22 74° 65° (ENE) 801 3.6 -17.2°
Enters shadow 23:27:32 24° 147° (SSE) 1,535 4.6 -17.2°
